Location: Abbey Hill
(34.0751°N, 84.0688°W)
Time: 11:11:27
(UTC+00:00)

X-37B - Pass Details

Date: 24 September 2021
Orbit: 385 x 389 km, 45.0° (Epoch: 17 October)

Event Time Altitude Azimuth Distance (km) Brightness Sun altitude
Exits shadow 10:45:46 - 305° (NW) 1,603 3.2 -9.1°
Reaches altitude 10° 10:46:32 10° 316° (NW) 1,412 3.1 -9.0°
Maximum altitude 10:48:17 14° 349° (N) 1,208 3.0 -8.6°
Drops below altitude 10° 10:50:02 10° 22° (NNE) 1,414 3.8 -8.3°
Sets 10:52:52 0° 50° (NE) 2,271 5.5 -7.7°
